CW6614 Weather Reports


Display with metric or nautical units.
time (UTC)temp
F
wind
direction
speed
MPH
gust
MPH
rain 1hr
in
rain 24hr
in
rain mn
in
humidity
%
barometer
mb
20260507142354 58 283 1.0 8.0 0.00 0.00 0.00 50 1009.0
20260507141325 57 271 1.0 5.0 0.00 0.00 0.00 51 1008.9
20260507140328 57 299 1.0 4.0 0.00 0.00 0.00 51 1009.0
20260507135351 57 313 2.0 6.0 0.00 0.00 0.00 52 1008.9
20260507134348 57 321 1.0 4.0 0.00 0.00 0.00 52 1008.8
20260507133325 56 295 1.0 6.0 0.00 0.00 0.00 54 1008.7
20260507132348 55 308 0.0 4.0 0.00 0.00 0.00 56 1008.7
20260507131324 54 293 0.0 3.0 0.00 0.00 0.00 58 1008.6
20260507130330 53 291 0.0 2.0 0.00 0.00 0.00 61 1008.5
20260507125351 52 298 0.0 2.0 0.00 0.00 0.00 62 1008.4
20260507124328 51 286 0.0 1.0 0.00 0.00 0.00 64 1008.3
20260507123351 50 254 0.0 0.0 0.00 0.00 0.00 65 1008.1
20260507122347 50 272 0.0 1.0 0.00 0.00 0.00 65 1008.1
20260507121324 51 279 0.0 1.0 0.00 0.00 0.00 64 1007.9
20260507120327 51 250 0.0 0.0 0.00 0.00 0.00 64 1007.9
20260507115326 52 263 0.0 1.0 0.00 0.00 0.00 64 1007.9
20260507114348 52 205 0.0 1.0 0.00 0.00 0.00 63 1007.7
20260507113326 53 315 0.0 1.0 0.00 0.00 0.00 63 1007.6
20260507112408 53 230 0.0 1.0 0.00 0.00 0.00 64 1007.5
20260507111327 53 261 0.0 1.0 0.00 0.00 0.00 64 1007.5
20260507110354 53 262 0.0 1.0 0.00 0.00 0.00 65 1007.4
20260507105328 53 191 0.0 0.0 0.00 0.00 0.00 64 1007.4
20260507104329 53 218 0.0 1.0 0.00 0.00 0.00 64 1007.3
20260507103351 53 294 0.0 0.0 0.00 0.00 0.00 64 1007.3
20260507102348 53 251 0.0 0.0 0.00 0.00 0.00 64 1007.2
20260507101330 53 232 0.0 1.0 0.00 0.00 0.00 64 1007.3
20260507100334 53 217 0.0 0.0 0.00 0.00 0.00 64 1007.2
20260507095415 53 178 0.0 1.0 0.00 0.00 0.00 64 1007.1
20260507094350 53 196 0.0 1.0 0.00 0.00 0.00 63 1007.1
20260507093351 54 163 0.0 1.0 0.00 0.00 0.00 63 1007.0
20260507092348 53 176 0.0 0.0 0.00 0.00 0.00 63 1007.0
20260507091346 53 205 0.0 1.0 0.00 0.00 0.00 64 1007.1
20260507090325 53 193 0.0 1.0 0.00 0.00 0.00 64 1007.1
20260507085331 53 177 0.0 0.0 0.00 0.00 0.00 64 1007.0
20260507084337 53 211 0.0 1.0 0.00 0.00 0.00 64 1007.0
20260507083333 53 199 0.0 1.0 0.00 0.00 0.00 64 1007.0
20260507082337 53 187 0.0 0.0 0.00 0.00 0.00 64 1007.0
20260507081325 53 184 0.0 0.0 0.00 0.00 0.00 64 1007.0
20260507080413 54 190 0.0 2.0 0.00 0.00 0.00 65 1007.0
20260507075348 54 193 0.0 4.0 0.00 0.00 0.00 64 1007.1
20260507074324 54 190 0.0 4.0 0.00 0.00 0.00 64 1007.0
20260507073330 54 201 0.0 2.0 0.00 0.00 0.00 65 1007.2
20260507072350 54 209 0.0 3.0 0.00 0.00 0.00 65 1007.2
20260507071410 55 180 0.0 0.0 0.00 0.00 0.00 64 1007.2
20260507070348 55 171 0.0 1.0 0.00 0.00 0.00 64 1007.3
20260507065326 55 196 0.0 1.0 0.00 0.00 0.00 63 1007.3
20260507064330 55 281 0.0 0.0 0.00 0.00 0.00 63 1007.3
20260507063329 55 281 0.0 0.0 0.00 0.00 0.00 64 1007.1
20260507062331 56 281 0.0 0.0 0.00 0.00 0.00 63 1007.0
20260507061333 56 302 0.0 0.0 0.00 0.00 0.00 62 1007.8
20260507060327 56 273 0.0 0.0 0.00 0.00 0.00 60 1007.5
20260507055350 56 265 0.0 0.0 0.00 0.00 0.00 60 1007.4
20260507054348 56 265 0.0 0.0 0.00 0.00 0.00 60 1007.2
20260507053347 55 263 0.0 1.0 0.00 0.00 0.00 61 1007.4
20260507052323 55 244 0.0 1.0 0.00 0.00 0.00 61 1007.5
20260507051329 55 298 0.0 1.0 0.00 0.00 0.00 61 1007.4
20260507050332 56 220 0.0 0.0 0.00 0.00 0.00 59 1007.4
20260507045334 56 220 0.0 0.0 0.00 0.00 0.00 58 1007.3
20260507044330 57 220 0.0 0.0 0.00 0.00 0.00 56 1007.0
20260507043351 58 220 0.0 0.0 0.00 0.00 0.00 55 1007.0
20260507042328 58 205 0.0 0.0 0.00 0.00 0.00 55 1007.0
20260507041350 58 194 0.0 1.0 0.00 0.00 0.00 55 1006.9
20260507040353 58 170 0.0 1.0 0.00 0.00 0.00 54 1006.8
20260507035326 59 193 0.0 2.0 0.00 0.00 0.00 53 1006.7
20260507034349 60 177 1.0 4.0 0.00 0.00 0.00 50 1006.4
20260507033332 61 173 0.0 1.0 0.00 0.00 0.00 49 1006.0
20260507032337 62 51 0.0 1.0 0.00 0.00 0.00 46 1005.9
20260507031328 62 191 0.0 1.0 0.00 0.00 0.00 40 1007.0
20260507030328 62 240 0.0 1.0 0.00 0.00 0.00 39 1006.8
20260507025352 62 195 0.0 1.0 0.00 0.00 0.00 39 1006.7
20260507024350 62 211 0.0 3.0 0.00 0.00 0.00 39 1006.7
20260507023348 63 242 0.0 3.0 0.00 0.00 0.00 36 1006.8
20260507022325 63 205 0.0 1.0 0.00 0.00 0.00 36 1006.8
20260507021332 64 198 1.0 3.0 0.00 0.00 0.00 36 1006.9
20260507020358 64 178 0.0 3.0 0.00 0.00 0.00 30 1006.5
20260507015334 65 196 0.0 4.0 0.00 0.00 0.00 30 1006.3
20260507014355 65 178 0.0 3.0 0.00 0.00 0.00 29 1005.8
20260507013341 66 137 0.0 1.0 0.00 0.00 0.00 29 1005.7
20260507012332 66 76 0.0 2.0 0.00 0.00 0.00 29 1005.6
20260507011331 66 90 0.0 1.0 0.00 0.00 0.00 28 1005.8
20260507010330 67 146 0.0 1.0 0.00 0.00 0.00 28 1005.7
20260507005352 67 96 0.0 1.0 0.00 0.00 0.00 28 1005.6
20260507004348 67 203 0.0 1.0 0.00 0.00 0.00 28 1005.5
20260507003349 67 51 0.0 1.0 0.00 0.00 0.00 28 1005.5
20260507002324 68 157 0.0 4.0 0.00 0.00 0.00 28 1005.4
20260507001350 68 88 1.0 3.0 0.00 0.00 0.00 27 1005.4
20260507000328 68 202 0.0 3.0 0.00 0.00 0.00 27 1005.5
20260506235351 68 30 0.0 2.0 0.00 0.00 0.00 28 1005.4
20260506234348 68 125 0.0 4.0 0.00 0.00 0.00 28 1005.5
20260506233344 68 122 0.0 2.0 0.00 0.00 0.00 28 1005.3
20260506232336 68 105 0.0 4.0 0.00 0.00 0.00 28 1005.3
20260506231332 68 28 0.0 3.0 0.00 0.00 0.00 28 1005.4
20260506230333 68 31 1.0 4.0 0.00 0.00 0.00 26 1005.4
20260506225328 68 87 1.0 3.0 0.00 0.00 0.00 27 1005.5
20260506224352 68 93 0.0 4.0 0.00 0.00 0.00 27 1005.5
20260506223339 68 247 0.0 4.0 0.00 0.00 0.00 27 1005.8
20260506222325 68 88 1.0 3.0 0.00 0.00 0.00 27 1005.8
20260506221351 69 80 0.0 4.0 0.00 0.00 0.00 26 1005.9
20260506220347 69 5 0.0 4.0 0.00 0.00 0.00 27 1006.1
20260506215330 70 186 0.0 4.0 0.00 0.00 0.00 27 1006.2
20260506214335 71 208 1.0 7.0 0.00 0.00 0.00 25 1006.3
20260506213328 72 70 1.0 3.0 0.00 0.00 0.00 24 1006.5
20260506212328 71 265 0.0 5.0 0.00 0.00 0.00 24 1006.6
20260506211351 70 204 1.0 6.0 0.00 0.00 0.00 26 1006.7
20260506210354 69 53 1.0 5.0 0.00 0.00 0.00 26 1006.7
20260506205329 68 153 2.0 9.0 0.00 0.00 0.00 27 1006.9
20260506204350 68 100 1.0 6.0 0.00 0.00 0.00 26 1006.9
20260506203410 69 125 1.0 4.0 0.00 0.00 0.00 27 1007.0
20260506202324 68 70 1.0 6.0 0.00 0.00 0.00 27 1007.1
20260506201347 67 201 1.0 5.0 0.00 0.00 0.00 26 1007.3
20260506200340 67 96 1.0 5.0 0.00 0.00 0.00 26 1007.3
20260506195343 67 61 1.0 6.0 0.00 0.00 0.00 27 1007.5
20260506194325 66 259 1.0 7.0 0.00 0.00 0.00 27 1007.6
20260506193351 65 186 2.0 7.0 0.00 0.00 0.00 26 1007.6
20260506192347 64 171 1.0 8.0 0.00 0.00 0.00 29 1007.7
20260506191324 64 194 1.0 8.0 0.00 0.00 0.00 29 1007.9
20260506190330 64 94 0.0 10.0 0.00 0.00 0.00 29 1008.0
20260506185351 65 213 2.0 8.0 0.00 0.00 0.00 26 1008.1
20260506184328 64 166 1.0 5.0 0.00 0.00 0.00 30 1008.2
20260506183330 63 211 0.0 9.0 0.00 0.00 0.00 30 1008.3
20260506182332 62 103 1.0 7.0 0.00 0.00 0.00 32 1008.4
20260506181338 61 252 1.0 6.0 0.00 0.00 0.00 31 1008.4
20260506180341 61 87 0.0 9.0 0.00 0.00 0.00 31 1008.4
20260506175338 61 84 2.0 9.0 0.00 0.00 0.00 32 1008.6
20260506174343 60 101 1.0 6.0 0.00 0.00 0.00 33 1008.8
20260506173328 60 87 1.0 8.0 0.00 0.00 0.00 32 1008.9
20260506172330 60 192 1.0 5.0 0.00 0.00 0.00 32 1009.0
20260506171412 59 219 0.0 6.0 0.00 0.00 0.00 33 1009.2
20260506170328 59 273 1.0 10.0 0.00 0.00 0.00 33 1009.5
20260506165330 59 129 0.0 4.0 0.00 0.00 0.00 34 1009.5
20260506164329 58 240 0.0 6.0 0.00 0.00 0.00 35 1009.6
20260506163352 57 74 1.0 8.0 0.00 0.00 0.00 35 1009.6
20260506162325 56 130 1.0 9.0 0.00 0.00 0.00 35 1009.7
20260506161328 56 106 0.0 8.0 0.00 0.00 0.00 36 1009.9
20260506160353 55 159 0.0 8.0 0.00 0.00 0.00 37 1010.0
20260506155342 54 186 1.0 4.0 0.00 0.00 0.00 37 1010.2
20260506154324 54 166 0.0 8.0 0.00 0.00 0.00 38 1010.3
20260506153328 53 22 0.0 4.0 0.00 0.00 0.00 39 1010.3
20260506152349 51 68 0.0 10.0 0.00 0.00 0.00 41 1010.5
20260506151324 51 175 1.0 7.0 0.00 0.00 0.00 40 1010.5
20260506150329 50 177 2.0 11.0 0.00 0.00 0.00 40 1010.7
20260506145348 49 186 1.0 9.0 0.00 0.00 0.00 40 1010.8
20260506144323 48 151 1.0 6.0 0.00 0.00 0.00 42 1010.9
20260506143330 47 208 0.0 3.0 0.00 0.00 0.00 44 1011.0